STARLINK-37518, 69259

Orbit data source: Space-Track

STARLINK-37518, 69259 is a payload satellite owned by SpaceX/Seattle (US) in LEO that was launched on Fri, 29 May 2026 UTC via an FALCON 9 launch vehicle from the Air Force Eastern Test Range (AFETR). Payload-class satellites include a variety of spacecraft equipped with specific instruments for various scientific and technological missions. These include communications satellites like Starlink; space stations such as the ISS; scientific satellites like the Hubble; Earth observation satellites from companies like Planet Labs, Umbra, and HawkEye 360; GPS; miniature CubeSats for education and research; and military/defense satellites.

Loading next visibility...
Identifier
69259, 2026-117X
Orbit
LEO
Country
Flag of USUS
Related business
Manufacturer
SpaceX/Seattle
Mission
Operational spacecraft
Bus & Motor
STARLINK V2MO, Unknown motor
Mass
575 kg wet, ~530 kg dry
Launch date (UTC)
2026-05-29 (3 weeks ago)
Launch vehicle
FALCON 9
Launch site
Air Force Eastern Test Range (AFETR)
Object type
Payload
Rocket body
Debris
Shape & HBR
Unknown
Radar Cross Section
Large (>1 m²)

Expand to show TLE details & history
Last TLE update: 9 hours ago

TLE from 9 hours ago
0 STARLINK-37518
1 69259U 26117X   26168.68965501  .00071475  00000-0  36233-3 0  9995
2 69259  53.1567 240.3730 0001613  58.4994 301.6186 15.80892884  3066
Epoch: 2026-06-17T16:33Z
TLE epoch observation values (Epoch: 2026-06-17T16:33:06.192Z)
Latitude
-0.00005°
Longitude
86.15343°
Altitude
328.266 km
Speed
7.713 km/s
True Right ascension
16h 01m 29s
True Declination
0° 00' 00"
Sunlit
Object was in full shadow at epoch
Visualization orbit readout
Latitude
Unknown
Longitude
Unknown
Altitude
Unknown
Speed
Unknown
Apparent Right ascension
Unknown
Apparent Declination
Unknown
Sunlit
N/A
Visualization observer readout
Local Sidereal Time
12:34:02
Azimuth
Unknown
Elevation
Unknown
Doppler factor
Unknown
Orbital elements
Apogee altitude
329.259 km
Perigee altitude
327.095 km
Semi-major axis
6,706.314 km
Eccentricity
0.00016
Inclination
53.1567°
RAAN
240.373°
Arg. of periapsis
58.4994°
True anomaly
301.60286°
Mean anomaly
301.6186°
Eccentric anomaly
301.61073°
Mean motion
3.952 °/min
Orbital period
91.09 mins
BSTAR
0.00036233
Loading maneuver chart data...
Computing Atmospheric mass density...
Loading historical data...
Loading historical data...
Loading historical data...
Loading historical data...
Loading historical data...
Loading historical data...
Loading historical data...

Documentation

Showing up to 5 results
|